Flag for U.S.A. Weather past 2 weeks in Scottsdale, Arizona, U.S.A.

Now
88 °F

Clear.


Feels Like: 86 °F
Forecast: 83 / 104 °F
Wind: No wind

Location: Scottsdale Airport

Current Time: Aug 4, 2015 at 3:22:44 AM

Latest Report: Aug 4, 2015 at 2:53 AM


Visibility: 10 mi

Pressure: 29.74 "Hg

Humidity: 30%

Dew point: 53 °F

Location of ScottsdaleLocation

Historic Weather in Scottsdale — Graph

°F

Scottsdale temperature yesterday

Maximum temperature yesterday: 107 °F (at 2:53 PM)
Minimum temperature yesterday: 87 °F (at 5:53 AM)
Average temperature yesterday: 97 °F

Past Weeks' High & Low Weather Summary

 TemperatureHumidityPressure
High107 °F (Aug 3, 2:53 PM)60% (Aug 1, 1:53 AM)29.98 "Hg (Aug 1, 1:53 AM)
Low82 °F (Jul 25, 4:53 AM)6% (Jul 25, 3:53 PM)29.65 "Hg (Aug 2, 5:53 PM)
Average93 °F28%29.81 "Hg
* Reported Jul 20 1:53 AM — Aug 4 1:53 AM, Scottsdale, Weather by CustomWeather, © 2015

Note: Actual official high and low records may vary slightly from our data, if they occured in-between our weather recording intervals... More about our weather records

Advertising

Scottsdale weather history for previous 24 hours

 ConditionsComfort  
Time TempWeatherWind HumidityBarometerVisibility
1:53 AM
Tue, Aug 4
88 °FClear.No wind29%29.73 "Hg10 mi
12:53 AM91 °FClear.No wind25%29.73 "Hg10 mi
11:53 PM
Mon, Aug 3
93 °FClear.3 mph23%29.72 "Hg10 mi
10:53 PM96 °FClear.No wind19%29.72 "Hg10 mi
9:53 PM98 °FClear.3 mph17%29.72 "Hg10 mi
8:53 PM99 °FClear.No wind15%29.71 "Hg10 mi
7:53 PM102 °FClear.6 mph12%29.70 "Hg10 mi
6:53 PM105 °FSunny.8 mph11%29.68 "Hg10 mi
5:53 PM106 °FSunny.8 mph11%29.67 "Hg10 mi
4:53 PM107 °FSunny.6 mph9%29.69 "Hg10 mi
3:53 PM106 °FSunny.9 mph13%29.70 "Hg10 mi
2:53 PM107 °FSunny.10 mph12%29.72 "Hg10 mi
1:53 PM103 °FSunny.6 mph14%29.76 "Hg10 mi
12:53 PM103 °FSunny.5 mph16%29.78 "Hg7 mi
11:53 AM102 °FSunny.No wind17%29.80 "Hg10 mi
10:53 AM99 °FSunny.3 mph20%29.80 "Hg10 mi
9:53 AM96 °FSunny.No wind23%29.81 "Hg10 mi
8:53 AM93 °FSunny.No wind28%29.80 "Hg10 mi
7:53 AM88 °FSunny.No wind38%29.79 "Hg10 mi
6:53 AM88 °FSunny.3 mph34%29.78 "Hg10 mi
5:53 AM87 °FSunny.No wind31%29.75 "Hg10 mi
4:53 AM88 °FClear.No wind30%29.72 "Hg10 mi
3:53 AM89 °FClear.No wind28%29.71 "Hg10 mi
Weather by CustomWeather, © 2015

See weather overviewHow to use our weather pages